[[{"header":{"parameterUnit":"m.s-1","parameterCategory":1,"la1":30.2991,"la2":30.254,"lo1":-89.0895,"lo2":-89.0444,"dy":0.0017,"dx":0.0017,"nx":28,"ny":28,"refTime":"2025-03-21T03:00:00:Z","depth":0,"parameterNumber":2,"parameterNumberName":"U-component_of_WINDS"},"data":[0,0,0,0,0,0,0,0,0,0,0,0,0,0,0,0,0,0,0,0,0,0,0,0,0,0,0,0,0,0,0,0,0,0,0,0,0,0,0,0,0,0,0,0,0,0,0,0,0,0,0,0,0,0,0,0,0,0,-1.9163,-1.9163,0,-1.9101,-1.91,-1.9099,-1.9011,-1.901,-1.9008,-1.9007,-1.8943,-1.8942,-1.8942,0,0,0,0,0,0,0,0,0,0,0,0,0,-1.9208,-1.9208,-1.9163,-1.9163,-1.9162,-1.9101,-1.91,-1.9099,-1.9011,-1.9009,-1.9008,-1.9006,-1.8943,-1.8942,-1.8942,0,0,0,0,0,0,0,0,0,0,0,0,0,-1.9172,-1.9208,-1.9164,-1.9111,-1.9105,-1.9101,-1.91,-1.9099,-1.9012,-1.9009,-1.9007,-1.9005,-1.8943,-1.8942,-1.8942,-1.8985,0,0,-1.8941,-1.894,0,0,0,0,0,0,0,0,-1.9174,-1.917,-1.9119,-1.9114,-1.9108,-1.9061,-1.9092,-1.9061,-1.9012,-1.9047,-1.9007,-1.9004,-1.8984,-1.898,-1.8973,-1.8982,-1.8979,-1.8941,-1.894,-1.894,-1.894,0,0,0,0,0,0,0,-1.9176,-1.9172,-1.9139,-1.9119,-1.9112,-1.9091,-1.9083,-1.9086,-1.9029,-1.9044,-1.9037,-1.9031,-1.8981,-1.8974,-1.8971,-1.8978,-1.8941,-1.894,-1.894,-1.894,-1.902,-1.9022,0,0,0,0,0,0,-1.9187,-1.9175,-1.9141,-1.9137,-1.9136,-1.9092,-1.9083,-1.9079,-1.9029,-1.9019,-1.9033,-1.9027,-1.8976,-1.8972,-1.8969,-1.9016,-1.894,-1.894,-1.894,-1.9017,-1.902,-1.9023,0,0,0,0,0,0,-1.9188,-1.9184,-1.9143,-1.9154,-1.9147,-1.9093,-1.9089,-1.9079,-1.9072,-1.9021,-1.901,-1.9037,-1.8974,-1.8969,-1.8982,-1.9012,-1.894,-1.8939,-1.9015,-1.9018,-1.9022,-1.911,0,0,0,0,0,0,-1.919,-1.9185,-1.9201,-1.9155,-1.9147,-1.9157,-1.9091,-1.9079,-1.9071,-1.9063,-1.9021,-1.9012,-1.8972,-1.8983,-1.8981,-1.901,-1.8939,-1.9012,-1.9016,-1.9021,-1.9104,-1.9116,-1.9127,0,0,0,0,0,-1.9191,-1.9228,-1.9202,-1.9198,-1.9165,-1.9159,-1.9154,-1.9107,-1.9074,-1.9089,-1.9057,-1.9013,-1.901,-1.8985,-1.8982,-1.9012,-1.9009,-1.9015,-1.902,-1.9099,-1.9114,-1.9126,0,0,0,0,0,0,-1.9277,-1.9221,-1.9191,-1.9214,-1.9192,-1.9144,-1.9161,-1.9124,-1.9111,-1.9104,-1.9046,-1.9037,-1.9057,-1.9036,-1.9009,-1.9051,-1.9003,-1.9008,-1.9064,-1.9078,-1.9089,-1.9093,-1.8938,0,0,0,0,0,-1.9299,-1.9299,-1.9249,-1.9274,-1.9265,-1.9216,-1.9211,-1.9177,-1.9152,-1.9142,-1.911,-1.9088,-1.9082,-1.9079,-1.907,-1.9101,-1.9091,-1.9121,-1.9132,-1.9141,-1.9146,-1.9162,-1.9175,-1.9041,-1.9041,-1.904,0,0,-1.9344,-1.9313,-1.9316,-1.9291,-1.927,-1.9271,-1.9208,-1.9212,-1.9213,-1.9143,-1.9152,-1.9129,-1.91,-1.9123,-1.9131,-1.9105,-1.9181,-1.9148,-1.9156,-1.9155,-1.9169,-1.9182,-1.9193,-1.9044,-1.9044,-1.9043,0,0,-1.9425,-1.9402,-1.942,-1.9401,-1.937,-1.9338,-1.9343,-1.9301,-1.9282,-1.9292,-1.9239,-1.924,-1.923,-1.9212,-1.9202,-1.928,-1.924,-1.9279,-1.9337,-1.9353,-1.9364,-1.9373,-1.9401,-1.9412,-1.9284,-1.9284,-1.9285,0,-1.9484,-1.9484,-1.9434,-1.9442,-1.9433,-1.937,-1.9389,-1.9373,-1.9341,-1.9337,-1.9309,-1.9296,-1.9273,-1.9291,-1.931,-1.9304,-1.9308,-1.9283,-1.9366,-1.9375,-1.9383,-1.9409,-1.9419,-1.9289,-1.9289,-1.9288,-1.9288,0,-1.9558,-1.9559,-1.9578,-1.9549,-1.9543,-1.9556,-1.9509,-1.9508,-1.9475,-1.9446,-1.9457,-1.9427,-1.9412,-1.9414,-1.9381,-1.9428,-1.9413,-1.9377,-1.9327,-1.9401,-1.9425,-1.9434,-1.9296,-1.9295,-1.9293,-1.9292,0,0,-1.969,-1.9635,-1.9643,-1.963,-1.9593,-1.9593,-1.9604,-1.959,-1.959,-1.9572,-1.958,-1.9574,-1.9541,-1.953,-1.9495,-1.951,-1.9574,-1.9472,-1.947,-1.9492,-1.9624,-1.9651,-1.9663,-1.9549,-1.955,-1.9552,-1.9626,0,-1.9763,-1.9779,-1.9735,-1.9762,-1.9763,-1.9705,-1.9715,-1.9694,-1.9668,-1.9665,-1.9636,-1.9633,-1.959,-1.9583,-1.9595,-1.9564,-1.96,-1.9558,-1.9556,-1.9556,-1.9563,-1.9675,-1.9703,-1.9775,-1.9635,-1.9637,-1.9638,0,-1.9851,-1.9837,-1.9864,-1.9827,-1.9826,-1.9835,-1.9819,-1.9818,-1.9793,-1.9773,-1.9762,-1.9723,-1.9732,-1.9686,-1.9698,-1.9671,-1.9668,-1.9653,-1.9655,-1.9652,-1.9601,-1.9675,-1.9797,-1.9808,-1.9652,-1.9651,-1.965,0,-1.9944,-1.9932,-1.9947,-1.9938,-1.9895,-1.9903,-1.9886,-1.9859,-1.9854,-1.9841,-1.9837,-1.9825,-1.9818,-1.9811,-1.9769,-1.974,-1.9787,-1.9737,-1.9771,-1.9772,-1.9782,-1.9782,-1.9905,-1.9782,-1.9782,-1.9782,-1.9782,0,-2.003,-2.0048,-1.9988,-1.9997,-2.0017,-1.9968,-1.9989,-1.9966,-1.9944,-1.9948,-1.9898,-1.9903,-1.9849,-1.9848,-1.9817,-1.9832,-1.983,-1.9814,-1.9805,-1.9818,-1.982,-1.9814,-1.9808,-1.9785,-1.9784,-1.9783,-1.9783,0,-2.0136,-2.0096,-2.0109,-2.0068,-2.0058,-2.0075,-2.004,-2.0047,-2.0019,-2.0025,-2.0024,-1.9979,-1.9976,-1.9935,-1.9923,-1.9902,-1.993,-1.9912,-1.9938,-1.9932,-1.9968,-1.9965,-2.0091,-2.0105,-1.9974,-1.9976,-1.9977,0,-2.0193,-2.0206,-2.0167,-2.0167,-2.0152,-2.0151,-2.0146,-2.0099,-2.0096,-2.0071,-2.0081,-2.0075,-2.0066,-2.0065,-2.0032,-2.0023,-2.0004,-2.0049,-2.0002,-2.0015,-2.0004,-2.0004,-2.0005,-2.0058,-2.006,-2.0061,-2.0062,0,-2.0298,-2.0278,-2.0272,-2.0261,-2.0256,-2.0244,-2.0229,-2.0232,-2.0181,-2.018,-2.0176,-2.017,-2.0159,-2.0153,-2.0139,-2.0122,-2.0084,-2.0078,-2.0085,-2.0097,-2.0112,-2.0104,-1.9964,-2.0074,-2.0073,-2.0072,-2.0072,-2.0071,-2.038,-2.039,-2.0365,-2.036,-2.0345,-2.0333,-2.0338,-2.0311,-2.0307,-2.0294,-2.0267,-2.0269,-2.0246,-2.0223,-2.021,-2.021,-2.0187,-2.0198,-2.02,-2.0203,-2.0211,-2.0113,-2.0208,-2.0207,-2.0207,-2.0206,-2.0206,0,-2.0483,-2.0464,-2.0461,-2.0442,-2.044,-2.0405,-2.0388,-2.0388,-2.0389,-2.0372,-2.0365,-2.0362,-2.0357,-2.0325,-2.0316,-2.0323,-2.0306,-2.0323,-2.0321,-2.0318,-2.0232,-2.0226,-2.0337,-2.0337,-2.0337,-2.0337,-2.0337,-2.0337,-2.0535,-2.055,-2.0528,-2.0535,-2.0516,-2.0517,-2.051,-2.0499,-2.0485,-2.0484,-2.0479,-2.0459,-2.0435,-2.0425,-2.0419,-2.041,-2.0409,-2.0432,-2.0417,-2.0336,-2.0324,-2.0312,-2.0306,-2.0432,-2.0432,-2.0503,-2.0503,-2.0504]},{"header":{"parameterUnit":"m.s-1","parameterCategory":1,"la1":30.2991,"la2":30.254,"lo1":-89.0895,"lo2":-89.0444,"dy":0.0017,"dx":0.0017,"nx":28,"ny":28,"refTime":"2025-03-21T03:00:00:Z","depth":0,"parameterNumber":3,"parameterNumberName":"V-component_of_WINDS"},"data":[0,0,0,0,0,0,0,0,0,0,0,0,0,0,0,0,0,0,0,0,0,0,0,0,0,0,0,0,0,0,0,0,0,0,0,0,0,0,0,0,0,0,0,0,0,0,0,0,0,0,0,0,0,0,0,0,0,0,2.6349,2.6349,0,2.6347,2.6347,2.6347,2.6366,2.6367,2.6368,2.6368,2.6362,2.6361,2.636,0,0,0,0,0,0,0,0,0,0,0,0,0,2.6368,2.6367,2.6349,2.6349,2.6349,2.6347,2.6347,2.6347,2.6366,2.6367,2.6368,2.6368,2.6362,2.6361,2.636,0,0,0,0,0,0,0,0,0,0,0,0,0,2.6362,2.6367,2.6349,2.6359,2.636,2.6347,2.6347,2.6347,2.6366,2.6367,2.6368,2.6369,2.6362,2.6361,2.636,2.6337,0,0,2.6357,2.6356,0,0,0,0,0,0,0,0,2.6362,2.6361,2.6357,2.6358,2.6359,2.6358,2.6351,2.6343,2.6366,2.6364,2.6368,2.6369,2.6359,2.6359,2.6356,2.6336,2.6336,2.6357,2.6356,2.6356,2.6355,0,0,0,0,0,0,0,2.6363,2.6361,2.6348,2.6357,2.6358,2.6362,2.6362,2.635,2.6357,2.6364,2.6365,2.6365,2.636,2.6357,2.6356,2.6336,2.6357,2.6356,2.6355,2.6355,2.6298,2.6297,0,0,0,0,0,0,2.6362,2.6362,2.6348,2.6348,2.6363,2.6361,2.6361,2.6357,2.6357,2.6358,2.6364,2.6366,2.6359,2.6357,2.6356,2.6329,2.6356,2.6355,2.6354,2.6299,2.6298,2.6297,0,0,0,0,0,0,2.6363,2.6361,2.6348,2.6355,2.6354,2.636,2.6355,2.6357,2.6354,2.6357,2.6358,2.636,2.6359,2.6357,2.6342,2.6329,2.6354,2.6353,2.63,2.6298,2.6297,2.6275,0,0,0,0,0,0,2.6363,2.6361,2.6352,2.6355,2.6354,2.6335,2.6354,2.6356,2.6353,2.6355,2.6354,2.6354,2.636,2.6343,2.6341,2.6328,2.6352,2.6301,2.6299,2.6298,2.6277,2.6273,2.627,0,0,0,0,0,2.6364,2.6345,2.6352,2.635,2.6343,2.6334,2.6333,2.6341,2.6352,2.6343,2.6345,2.6354,2.6331,2.6342,2.6339,2.6326,2.6302,2.63,2.6298,2.6278,2.6273,2.627,0,0,0,0,0,0,2.6339,2.6345,2.6353,2.6335,2.6334,2.6337,2.6326,2.6335,2.633,2.6332,2.6341,2.634,2.6323,2.6323,2.6334,2.6304,2.6318,2.6316,2.6304,2.63,2.6296,2.6296,2.6352,0,0,0,0,0,2.6332,2.6325,2.633,2.6314,2.6313,2.632,2.6316,2.6322,2.6321,2.632,2.6321,2.6319,2.6311,2.6306,2.6299,2.6277,2.6277,2.6267,2.6263,2.626,2.6258,2.6247,2.6243,2.629,2.629,2.629,0,0,2.6316,2.6319,2.6313,2.6309,2.6309,2.63,2.6319,2.6309,2.6303,2.6318,2.6304,2.6305,2.6303,2.6284,2.6276,2.6283,2.6245,2.6258,2.6256,2.6254,2.6245,2.624,2.6236,2.6289,2.6289,2.6289,0,0,2.6283,2.6284,2.6271,2.6271,2.6272,2.6277,2.6274,2.6277,2.6278,2.6265,2.6276,2.6269,2.6255,2.6253,2.6251,2.6219,2.6228,2.6217,2.6198,2.6187,2.6184,2.618,2.6169,2.6165,2.6214,2.6214,2.6214,0,2.6263,2.6252,2.6263,2.6253,2.6251,2.6266,2.6253,2.6252,2.625,2.6247,2.6256,2.6241,2.624,2.6222,2.6215,2.6212,2.6208,2.6216,2.6184,2.618,2.6177,2.6167,2.6163,2.6213,2.6213,2.6213,2.6213,0,2.6227,2.6219,2.6208,2.6208,2.6204,2.6192,2.6201,2.6197,2.6204,2.6208,2.6194,2.6195,2.6188,2.6185,2.6191,2.6168,2.6172,2.6182,2.6197,2.6171,2.6162,2.6158,2.6211,2.6212,2.6212,2.6212,0,0,2.6176,2.6184,2.618,2.618,2.6183,2.6177,2.6166,2.6162,2.6157,2.6156,2.6146,2.6136,2.6146,2.6142,2.6149,2.614,2.6115,2.6151,2.6151,2.6144,2.609,2.6082,2.6078,2.6122,2.6121,2.612,2.609,0,2.6144,2.6127,2.6138,2.6119,2.6112,2.6128,2.6118,2.6119,2.6123,2.6117,2.6121,2.6113,2.6127,2.6125,2.6117,2.612,2.6105,2.6123,2.6112,2.6112,2.6112,2.6073,2.6064,2.6035,2.6087,2.6086,2.6086,0,2.6104,2.6103,2.6083,2.6089,2.6086,2.6078,2.6076,2.607,2.6071,2.6075,2.6073,2.6082,2.6071,2.6087,2.6072,2.6084,2.6081,2.6082,2.6081,2.6079,2.6096,2.6069,2.6027,2.6022,2.608,2.608,2.6081,0,2.6069,2.6062,2.605,2.605,2.6056,2.605,2.6052,2.6054,2.6051,2.6049,2.6047,2.6043,2.6041,2.6037,2.6045,2.6056,2.6029,2.6046,2.6031,2.6031,2.6024,2.6024,2.5979,2.6023,2.6023,2.6023,2.6023,0,2.6031,2.6019,2.6035,2.6027,2.6014,2.6026,2.6012,2.6016,2.6018,2.6011,2.6024,2.6017,2.6028,2.6022,2.6028,2.6015,2.6014,2.6016,2.6018,2.6015,2.6014,2.6012,2.6014,2.6022,2.6022,2.6022,2.6023,0,2.5989,2.5999,2.5987,2.5995,2.5997,2.5987,2.5993,2.5986,2.5992,2.5983,2.5982,2.599,2.5984,2.5992,2.5986,2.599,2.5973,2.5977,2.5972,2.5974,2.5959,2.596,2.591,2.5905,2.5952,2.5952,2.5951,0,2.5964,2.5955,2.5963,2.596,2.5962,2.5957,2.5955,2.5967,2.5964,2.5966,2.5959,2.5954,2.5951,2.5941,2.5946,2.5941,2.5946,2.5929,2.5945,2.5943,2.5945,2.5946,2.5945,2.5925,2.5924,2.5924,2.5924,0,2.5919,2.5925,2.5922,2.5922,2.5919,2.5919,2.592,2.5916,2.5929,2.5925,2.592,2.5918,2.5914,2.5909,2.5906,2.5908,2.5917,2.5919,2.5915,2.5912,2.5909,2.591,2.5963,2.5919,2.592,2.592,2.592,2.5921,2.5884,2.5878,2.5883,2.5879,2.5882,2.5882,2.5877,2.5883,2.5879,2.5877,2.5885,2.5878,2.588,2.5879,2.5879,2.5874,2.5881,2.5876,2.5874,2.5873,2.587,2.5911,2.5873,2.5873,2.5873,2.5874,2.5874,0,2.584,2.5844,2.5841,2.5843,2.584,2.5852,2.5854,2.5851,2.5845,2.5847,2.5845,2.5839,2.5835,2.5841,2.5838,2.5833,2.5837,2.5831,2.5831,2.5832,2.5864,2.5867,2.5828,2.5828,2.5828,2.5828,2.5828,2.5828,2.5816,2.5806,2.5812,2.5803,2.5808,2.5803,2.5803,2.5803,2.5805,2.5799,2.5797,2.5801,2.5805,2.5802,2.5799,2.5801,2.5799,2.5791,2.5795,2.5825,2.5829,2.5833,2.5837,2.5791,2.5791,2.5763,2.5763,2.5762]}]]